Simultaneous Nadir Overpasses (SNOs) Predictions

Prediction of SNOs between GOES-16 and LANDSAT-8 Satellite Orbit:

Table of predicted SNOs for the next 14.0 days since TLE Epoch: 7/6/2024
Index Date Time (GOES-16) GOES-16 Lat,Lon LANDSAT-8 Lat,Lon Distance(km) Time Diff (sec)
1 07/07/2024 15:11:57 0.01, -75.21 0.06, -75.40 22.13 80
2 07/09/2024 15:02:27 0.01, -75.22 -0.57, -72.44 315.45 80
3 07/10/2024 03:21:12 -0.00, -75.22 -0.50, -77.64 274.60 80
4 07/12/2024 03:11:41 -0.00, -75.25 0.09, -74.68 64.30 80
5 07/14/2024 02:59:31 -0.00, -75.28 0.76, -71.73 403.80 80
6 07/14/2024 15:18:07 0.00, -75.29 0.32, -76.89 181.47 80
7 07/16/2024 15:08:35 0.01, -75.32 -0.26, -73.92 158.75 80
8 07/17/2024 03:27:19 -0.01, -75.32 -0.79, -79.12 430.72 80
9 07/18/2024 14:56:24 0.02, -75.35 -0.91, -70.96 499.11 80
10 07/19/2024 03:17:47 -0.02, -75.36 -0.19, -76.15 90.25 80
